Simultaneous Nadir Overpasses (SNOs) Predictions

Prediction of SNOs between AURA and NPP Satellite Orbit:

Table of predicted SNOs for the next 14.0 days since TLE Epoch: 11/28/2020
Index Date (AURA) Time (AURA) Lat,Lon (AURA) SZA (AURA ) Date (NPP) Time (NPP) Lat,Lon (NPP) SZA (NPP ) Distance(km) Time Diff (sec)
1 11/30/2020 03:41:22 -79.52,-158.45 66.80 11/30/2020 03:41:11 -79.51,-158.59 66.77 3.00 11
2 11/30/2020 04:30:40 79.82, 11.35 112.80 11/30/2020 04:31:46 79.82, 11.39 112.74 0.96 66
3 12/02/2020 19:08:25 79.38, 148.84 113.83 12/02/2020 19:07:22 79.37, 148.74 113.89 2.07 63
4 12/02/2020 19:57:45 -79.65, -41.65 66.54 12/02/2020 19:57:59 -79.65, -41.67 66.55 0.45 14
5 12/05/2020 11:24:48 79.54, -94.18 114.01 12/05/2020 11:24:10 79.54, -94.11 114.02 1.37 38
6 12/05/2020 12:14:09 -79.77, 75.13 66.31 12/05/2020 12:14:48 -79.78, 75.27 66.37 3.08 39
7 12/08/2020 03:41:14 79.58, 21.97 114.30 12/08/2020 03:41:02 79.58, 21.94 114.32 0.67 12
8 12/08/2020 04:30:35 -79.81,-168.69 66.02 12/08/2020 04:31:40 -79.81,-168.64 66.08 1.19 65
9 12/10/2020 19:08:19 -79.43, -30.80 65.21 12/10/2020 19:07:15 -79.44, -30.75 65.17 0.97 64
